Time,TemperatureF,DewpointF,PressureIn,WindDirection,WindDirectionDegrees,WindSpeedMPH,WindSpeedGustMPH,Humidity,HourlyPrecipIn,Conditions,Clouds,dailyrainin,SoftwareType,DateUTC
2013-02-28 00:03:00,33.4,33.4,29.57,NW,322,0.0,9.0,100,0.00,,,0.00,VWS V14.00,2013-02-28 05:03:00,
2013-02-28 00:08:00,33.3,33.3,29.57,NW,322,0.0,0.0,100,0.00,,,0.00,VWS V14.00,2013-02-28 05:08:00,
2013-02-28 00:13:00,33.3,33.3,29.57,NNW,332,0.0,2.0,100,0.00,,,0.00,VWS V14.00,2013-02-28 05:13:00,
2013-02-28 00:18:00,33.3,33.3,29.57,NW,320,0.0,2.0,100,0.00,,,0.00,VWS V14.00,2013-02-28 05:18:00,
2013-02-28 00:23:00,33.3,33.3,29.57,NW,318,0.0,2.0,100,0.00,,,0.00,VWS V14.00,2013-02-28 05:23:00,
2013-02-28 00:28:00,33.3,33.3,29.56,NW,320,0.0,2.0,100,0.00,,,0.00,VWS V14.00,2013-02-28 05:28:00,
2013-02-28 00:33:00,33.3,33.3,29.57,NNW,327,3.0,5.0,100,0.00,,,0.00,VWS V14.00,2013-02-28 05:33:00,
2013-02-28 00:38:00,33.3,33.3,29.57,NW,314,0.0,6.0,100,0.00,,,0.00,VWS V14.00,2013-02-28 05:38:00,
2013-02-28 00:43:00,33.1,33.1,29.56,NW,314,4.0,6.0,100,0.00,,,0.00,VWS V14.00,2013-02-28 05:43:00,
2013-02-28 00:48:00,33.1,33.1,29.57,NNW,337,4.0,7.0,100,0.00,,,0.00,VWS V14.00,2013-02-28 05:48:00,
2013-02-28 00:53:00,33.1,33.1,29.57,NNW,334,1.0,7.0,100,0.00,,,0.00,VWS V14.00,2013-02-28 05:53:00,
2013-02-28 00:58:00,33.1,33.1,29.57,NNW,334,0.0,7.0,100,0.00,,,0.00,VWS V14.00,2013-02-28 05:58:00,
2013-02-28 01:03:00,33.1,33.1,29.56,NNW,334,0.0,2.0,100,0.00,,,0.00,VWS V14.00,2013-02-28 06:03:00,
2013-02-28 01:08:00,33.1,33.1,29.57,NNW,334,0.0,2.0,100,0.00,,,0.00,VWS V14.00,2013-02-28 06:08:00,
2013-02-28 01:13:00,33.1,33.1,29.57,NNW,335,0.0,2.0,100,0.00,,,0.00,VWS V14.00,2013-02-28 06:13:00,
2013-02-28 01:18:00,33.1,33.1,29.57,NNW,335,0.0,2.0,100,0.00,,,0.00,VWS V14.00,2013-02-28 06:18:00,
2013-02-28 01:23:00,33.1,33.1,29.57,NNW,335,0.0,3.0,100,0.00,,,0.00,VWS V14.00,2013-02-28 06:23:00,
2013-02-28 01:28:00,33.1,33.1,29.57,NNW,335,0.0,3.0,100,0.00,,,0.00,VWS V14.00,2013-02-28 06:28:00,
2013-02-28 01:33:00,33.1,33.1,29.57,NNW,335,0.0,0.0,100,0.00,,,0.00,VWS V14.00,2013-02-28 06:33:00,
2013-02-28 01:38:00,33.1,33.1,29.57,NNW,335,0.0,2.0,100,0.00,,,0.00,VWS V14.00,2013-02-28 06:38:00,
2013-02-28 01:43:00,33.1,33.1,29.57,NNW,335,0.0,2.0,100,0.00,,,0.00,VWS V14.00,2013-02-28 06:43:00,
2013-02-28 01:48:00,33.1,33.1,29.58,NNW,335,0.0,2.0,100,0.00,,,0.00,VWS V14.00,2013-02-28 06:48:00,
2013-02-28 01:53:00,33.1,33.1,29.58,NNW,335,0.0,3.0,100,0.00,,,0.00,VWS V14.00,2013-02-28 06:53:00,
2013-02-28 01:58:00,33.1,33.1,29.57,NNW,335,0.0,3.0,100,0.00,,,0.00,VWS V14.00,2013-02-28 06:58:00,
2013-02-28 02:03:00,33.1,33.1,29.58,NNW,335,0.0,4.0,100,0.00,,OVC006,0.00,VWS V14.00,2013-02-28 07:03:00,
2013-02-28 02:08:00,33.1,33.1,29.58,NNW,335,0.0,4.0,100,0.00,,OVC006,0.00,VWS V14.00,2013-02-28 07:08:00,
2013-02-28 02:13:00,33.1,33.1,29.57,NNW,335,0.0,4.0,100,0.00,,OVC006,0.00,VWS V14.00,2013-02-28 07:13:00,
2013-02-28 02:18:00,33.1,33.1,29.58,NNW,335,0.0,4.0,100,0.00,,OVC006,0.00,VWS V14.00,2013-02-28 07:18:00,
2013-02-28 02:23:00,33.1,33.1,29.57,NNW,334,0.0,4.0,100,0.00,,OVC006,0.00,VWS V14.00,2013-02-28 07:23:00,
2013-02-28 02:28:00,33.1,33.1,29.58,NNW,334,0.0,4.0,100,0.00,,OVC006,0.00,VWS V14.00,2013-02-28 07:28:00,
2013-02-28 02:33:00,33.1,33.1,29.57,NNW,334,0.0,1.0,100,0.01,,OVC006,0.01,VWS V14.00,2013-02-28 07:33:00,
2013-02-28 02:38:00,33.0,33.0,29.57,NNW,334,0.0,1.0,100,0.01,,OVC006,0.01,VWS V14.00,2013-02-28 07:38:00,
2013-02-28 02:43:00,33.0,33.0,29.58,NNW,334,0.0,3.0,100,0.01,,OVC006,0.01,VWS V14.00,2013-02-28 07:43:00,
2013-02-28 02:48:00,33.0,33.0,29.58,NNW,334,0.0,3.0,100,0.01,,OVC006,0.01,VWS V14.00,2013-02-28 07:48:00,
2013-02-28 02:53:00,33.0,33.0,29.58,NNW,334,0.0,3.0,100,0.01,,OVC006,0.01,VWS V14.00,2013-02-28 07:53:00,
2013-02-28 02:58:00,33.0,33.0,29.57,NNW,334,0.0,3.0,100,0.01,,OVC006,0.01,VWS V14.00,2013-02-28 07:58:00,
2013-02-28 03:03:00,32.8,32.8,29.57,NNW,334,0.0,0.0,100,0.01,,OVC006,0.01,VWS V14.00,2013-02-28 08:03:00,
2013-02-28 03:08:00,32.7,32.7,29.57,NNW,334,0.0,2.0,100,0.01,,OVC006,0.01,VWS V14.00,2013-02-28 08:08:00,
2013-02-28 03:13:00,32.8,32.8,29.57,NNW,334,0.0,2.0,100,0.01,,OVC006,0.01,VWS V14.00,2013-02-28 08:13:00,
2013-02-28 03:18:00,32.6,32.6,29.57,NNW,334,0.0,2.0,100,0.00,,OVC006,0.01,VWS V14.00,2013-02-28 08:18:00,
2013-02-28 03:23:00,32.6,32.6,29.57,NNW,334,0.0,2.0,100,0.00,,OVC006,0.01,VWS V14.00,2013-02-28 08:23:00,
2013-02-28 03:28:00,32.6,32.6,29.58,NNW,334,0.0,2.0,100,0.00,,OVC006,0.01,VWS V14.00,2013-02-28 08:28:00,
2013-02-28 03:33:00,32.6,32.6,29.58,NNW,334,0.0,0.0,100,0.00,,OVC006,0.01,VWS V14.00,2013-02-28 08:33:00,
2013-02-28 03:38:00,32.5,32.5,29.57,NNW,334,0.0,0.0,100,0.00,,OVC006,0.01,VWS V14.00,2013-02-28 08:38:00,
2013-02-28 03:43:00,32.4,32.4,29.57,NNW,334,0.0,0.0,100,0.00,,OVC006,0.01,VWS V14.00,2013-02-28 08:43:00,
2013-02-28 03:48:00,32.4,32.4,29.57,NNW,334,0.0,0.0,100,0.00,,OVC006,0.01,VWS V14.00,2013-02-28 08:48:00,
2013-02-28 03:53:00,32.4,32.4,29.58,NNW,334,0.0,0.0,100,0.00,,OVC006,0.01,VWS V14.00,2013-02-28 08:53:00,
2013-02-28 03:58:00,32.5,32.5,29.58,NNW,334,0.0,0.0,100,0.00,,OVC006,0.01,VWS V14.00,2013-02-28 08:58:00,
2013-02-28 04:03:00,32.4,32.4,29.58,NNW,334,0.0,0.0,100,0.00,,OVC006,0.01,VWS V14.00,2013-02-28 09:03:00,
2013-02-28 04:08:00,32.4,32.4,29.58,NNW,334,0.0,0.0,100,0.00,,OVC006,0.01,VWS V14.00,2013-02-28 09:08:00,
2013-02-28 04:13:00,32.5,32.5,29.57,NNW,334,0.0,0.0,100,0.00,,OVC006,0.01,VWS V14.00,2013-02-28 09:13:00,
2013-02-28 04:18:00,32.3,32.3,29.58,NNW,334,0.0,0.0,100,0.00,,OVC006,0.01,VWS V14.00,2013-02-28 09:18:00,
2013-02-28 04:23:00,32.3,32.3,29.58,NNW,334,0.0,0.0,100,0.00,,OVC006,0.01,VWS V14.00,2013-02-28 09:23:00,
2013-02-28 04:28:00,32.3,32.3,29.58,NNW,334,0.0,0.0,100,0.00,,OVC006,0.01,VWS V14.00,2013-02-28 09:28:00,
2013-02-28 04:33:00,32.2,32.2,29.58,NNW,334,0.0,0.0,100,0.00,,OVC006,0.01,VWS V14.00,2013-02-28 09:33:00,
2013-02-28 04:38:00,32.2,32.2,29.58,NNW,334,0.0,0.0,100,0.00,,OVC006,0.01,VWS V14.00,2013-02-28 09:38:00,
2013-02-28 04:43:00,32.2,32.2,29.58,NNW,334,0.0,0.0,100,0.00,,OVC006,0.01,VWS V14.00,2013-02-28 09:43:00,
2013-02-28 04:48:00,32.2,32.2,29.59,NNW,334,0.0,1.0,100,0.00,,OVC006,0.01,VWS V14.00,2013-02-28 09:48:00,
2013-02-28 04:53:00,32.1,32.1,29.60,NNW,334,0.0,1.0,100,0.00,,OVC006,0.01,VWS V14.00,2013-02-28 09:53:00,
2013-02-28 04:58:00,32.2,32.2,29.60,NNW,334,0.0,1.0,100,0.00,,OVC006,0.01,VWS V14.00,2013-02-28 09:58:00,
2013-02-28 05:03:00,32.0,32.0,29.60,NNW,334,0.0,0.0,100,0.00,,OVC008,0.01,VWS V14.00,2013-02-28 10:03:00,
2013-02-28 05:08:00,32.0,32.0,29.61,NNW,334,0.0,0.0,100,0.00,,OVC008,0.01,VWS V14.00,2013-02-28 10:08:00,
2013-02-28 05:13:00,32.0,32.0,29.61,NNW,334,0.0,0.0,100,0.00,,OVC008,0.01,VWS V14.00,2013-02-28 10:13:00,
2013-02-28 05:18:00,32.0,32.0,29.61,NNW,334,0.0,0.0,100,0.00,,OVC008,0.01,VWS V14.00,2013-02-28 10:18:00,
2013-02-28 05:23:00,32.0,32.0,29.60,NNW,334,0.0,0.0,100,0.00,,OVC008,0.01,VWS V14.00,2013-02-28 10:23:00,
2013-02-28 05:28:00,32.0,32.0,29.60,NNW,334,0.0,0.0,100,0.00,,OVC008,0.01,VWS V14.00,2013-02-28 10:28:00,
2013-02-28 05:33:00,32.2,32.2,29.61,NNW,334,0.0,0.0,100,0.00,,OVC008,0.01,VWS V14.00,2013-02-28 10:33:00,
2013-02-28 05:38:00,32.2,32.2,29.60,NNW,334,0.0,0.0,100,0.00,,OVC008,0.01,VWS V14.00,2013-02-28 10:38:00,
2013-02-28 05:43:00,32.0,32.0,29.60,NNW,334,0.0,0.0,100,0.00,,OVC008,0.01,VWS V14.00,2013-02-28 10:43:00,
2013-02-28 05:48:00,32.0,32.0,29.60,NNW,334,0.0,0.0,100,0.00,,OVC008,0.01,VWS V14.00,2013-02-28 10:48:00,
2013-02-28 05:53:00,31.9,31.9,29.60,NNW,334,0.0,0.0,100,0.00,,OVC008,0.01,VWS V14.00,2013-02-28 10:53:00,
2013-02-28 05:58:00,31.7,31.7,29.61,NNW,334,0.0,0.0,100,0.00,,OVC008,0.01,VWS V14.00,2013-02-28 10:58:00,
2013-02-28 06:03:00,31.6,31.6,29.61,NNW,334,0.0,0.0,100,0.00,,OVC008,0.01,VWS V14.00,2013-02-28 11:03:00,
2013-02-28 06:08:00,31.3,31.3,29.60,NNW,334,0.0,0.0,100,0.00,,OVC008,0.01,VWS V14.00,2013-02-28 11:08:00,
2013-02-28 06:13:00,31.1,31.1,29.60,NNW,334,0.0,0.0,100,0.00,,OVC008,0.01,VWS V14.00,2013-02-28 11:13:00,
2013-02-28 06:18:00,31.0,31.0,29.60,NNW,334,0.0,0.0,100,0.00,,OVC008,0.01,VWS V14.00,2013-02-28 11:18:00,
2013-02-28 06:23:00,30.9,30.9,29.61,NNW,334,0.0,0.0,100,0.00,,OVC008,0.01,VWS V14.00,2013-02-28 11:23:00,
2013-02-28 06:28:00,30.7,30.7,29.60,NNW,334,0.0,0.0,100,0.00,,OVC008,0.01,VWS V14.00,2013-02-28 11:28:00,
2013-02-28 06:33:00,30.5,30.5,29.61,NNW,334,0.0,0.0,100,0.00,,OVC008,0.01,VWS V14.00,2013-02-28 11:33:00,
2013-02-28 06:38:00,30.6,30.6,29.61,NNW,334,0.0,0.0,100,0.00,,OVC008,0.01,VWS V14.00,2013-02-28 11:38:00,
2013-02-28 06:43:00,30.5,30.5,29.60,NNW,334,0.0,0.0,100,0.00,,OVC008,0.01,VWS V14.00,2013-02-28 11:43:00,
2013-02-28 06:48:00,30.7,30.7,29.60,NNW,334,0.0,0.0,100,0.00,,OVC008,0.01,VWS V14.00,2013-02-28 11:48:00,
2013-02-28 06:53:00,30.8,30.8,29.60,NNW,334,0.0,0.0,100,0.00,,OVC008,0.01,VWS V14.00,2013-02-28 11:53:00,
2013-02-28 06:58:00,31.0,31.0,29.60,NNW,334,0.0,0.0,100,0.00,,OVC008,0.01,VWS V14.00,2013-02-28 11:58:00,
2013-02-28 07:03:00,31.1,31.1,29.60,NNW,334,0.0,0.0,100,0.00,,OVC010,0.01,VWS V14.00,2013-02-28 12:03:00,
2013-02-28 07:08:00,31.3,31.3,29.60,NNW,334,0.0,0.0,100,0.00,,OVC010,0.01,VWS V14.00,2013-02-28 12:08:00,
2013-02-28 07:13:00,31.3,31.3,29.60,NNW,334,0.0,0.0,100,0.00,,OVC010,0.01,VWS V14.00,2013-02-28 12:13:00,
2013-02-28 07:18:00,31.4,31.4,29.60,NNW,334,0.0,0.0,100,0.00,,OVC010,0.01,VWS V14.00,2013-02-28 12:18:00,
2013-02-28 07:23:00,31.7,31.7,29.61,NNW,334,0.0,0.0,100,0.00,,OVC010,0.01,VWS V14.00,2013-02-28 12:23:00,
2013-02-28 07:28:00,32.2,32.2,29.60,NNW,334,0.0,0.0,100,0.00,,OVC010,0.01,VWS V14.00,2013-02-28 12:28:00,
2013-02-28 07:33:00,32.6,32.6,29.61,NNW,334,0.0,0.0,100,0.00,,OVC010,0.01,VWS V14.00,2013-02-28 12:33:00,
2013-02-28 07:38:00,32.7,32.7,29.61,NNW,334,0.0,0.0,100,0.00,,OVC010,0.01,VWS V14.00,2013-02-28 12:38:00,
2013-02-28 07:43:00,33.0,33.0,29.61,NNW,334,0.0,0.0,100,0.00,,OVC010,0.01,VWS V14.00,2013-02-28 12:43:00,
2013-02-28 07:48:00,33.1,33.1,29.61,NNW,334,0.0,0.0,100,0.00,,OVC010,0.01,VWS V14.00,2013-02-28 12:48:00,
2013-02-28 07:53:00,33.5,33.5,29.61,NNW,334,0.0,0.0,100,0.00,,OVC010,0.01,VWS V14.00,2013-02-28 12:53:00,
2013-02-28 07:58:00,33.8,33.8,29.61,NNW,334,0.0,0.0,100,0.00,,OVC010,0.01,VWS V14.00,2013-02-28 12:58:00,
2013-02-28 08:03:00,34.0,34.0,29.61,NNW,334,0.0,0.0,100,0.00,,OVC008,0.01,VWS V14.00,2013-02-28 13:03:00,
2013-02-28 08:08:00,34.1,34.1,29.61,NNW,334,0.0,0.0,100,0.00,,OVC008,0.01,VWS V14.00,2013-02-28 13:08:00,
2013-02-28 08:13:00,34.1,34.1,29.62,NNW,334,0.0,0.0,100,0.00,,OVC008,0.01,VWS V14.00,2013-02-28 13:13:00,
2013-02-28 08:18:00,34.1,34.1,29.62,NNW,334,0.0,0.0,100,0.00,,OVC008,0.01,VWS V14.00,2013-02-28 13:18:00,
2013-02-28 08:23:00,34.1,34.1,29.62,NNW,334,0.0,0.0,100,0.00,,OVC008,0.01,VWS V14.00,2013-02-28 13:23:00,
2013-02-28 08:28:00,34.1,34.1,29.62,NNW,334,0.0,0.0,100,0.00,,OVC008,0.01,VWS V14.00,2013-02-28 13:28:00,
2013-02-28 08:33:00,34.1,34.1,29.62,NNW,334,0.0,0.0,100,0.00,,OVC008,0.01,VWS V14.00,2013-02-28 13:33:00,
2013-02-28 08:38:00,34.4,34.4,29.62,NNW,334,0.0,0.0,100,0.00,,OVC008,0.01,VWS V14.00,2013-02-28 13:38:00,
2013-02-28 08:43:00,34.5,34.5,29.63,NNW,334,0.0,0.0,100,0.00,,OVC008,0.01,VWS V14.00,2013-02-28 13:43:00,
2013-02-28 08:48:00,34.8,34.8,29.62,NNW,334,0.0,0.0,100,0.00,,OVC008,0.01,VWS V14.00,2013-02-28 13:48:00,
2013-02-28 08:53:00,35.1,35.1,29.62,NNW,334,0.0,0.0,100,0.00,,OVC008,0.01,VWS V14.00,2013-02-28 13:53:00,
2013-02-28 08:58:00,35.3,35.3,29.62,NNW,329,0.0,1.0,100,0.00,,OVC008,0.01,VWS V14.00,2013-02-28 13:58:00,
2013-02-28 09:03:00,34.8,34.8,29.63,WNW,283,0.0,0.0,100,0.00,,OVC008,0.01,VWS V14.00,2013-02-28 14:03:00,
2013-02-28 09:08:00,34.6,34.6,29.62,WNW,283,0.0,0.0,100,0.00,,OVC008,0.01,VWS V14.00,2013-02-28 14:08:00,
2013-02-28 09:13:00,34.7,34.7,29.62,WNW,283,0.0,0.0,100,0.00,,OVC008,0.01,VWS V14.00,2013-02-28 14:13:00,
2013-02-28 09:18:00,34.8,34.8,29.62,WNW,283,0.0,0.0,100,0.00,,OVC008,0.01,VWS V14.00,2013-02-28 14:18:00,
2013-02-28 09:23:00,34.8,34.8,29.62,West,281,0.0,1.0,100,0.00,,OVC008,0.01,VWS V14.00,2013-02-28 14:23:00,
2013-02-28 09:28:00,34.8,34.8,29.62,West,281,0.0,1.0,100,0.00,,OVC008,0.01,VWS V14.00,2013-02-28 14:28:00,
2013-02-28 09:33:00,34.8,34.8,29.62,West,281,0.0,0.0,100,0.00,,OVC008,0.01,VWS V14.00,2013-02-28 14:33:00,
2013-02-28 09:38:00,35.0,35.0,29.62,West,281,0.0,0.0,100,0.00,,OVC008,0.01,VWS V14.00,2013-02-28 14:38:00,
2013-02-28 09:43:00,35.3,35.3,29.62,West,281,0.0,0.0,100,0.00,,OVC008,0.01,VWS V14.00,2013-02-28 14:43:00,
2013-02-28 09:48:00,35.4,35.4,29.61,West,281,0.0,0.0,100,0.00,,OVC008,0.01,VWS V14.00,2013-02-28 14:48:00,
2013-02-28 09:53:00,35.4,35.4,29.60,West,281,0.0,0.0,100,0.00,,OVC008,0.01,VWS V14.00,2013-02-28 14:53:00,
2013-02-28 09:58:00,35.5,35.5,29.61,West,281,0.0,0.0,100,0.00,,OVC008,0.01,VWS V14.00,2013-02-28 14:58:00,
2013-02-28 10:03:00,35.5,35.5,29.60,West,281,0.0,0.0,100,0.00,,OVC010,0.01,VWS V14.00,2013-02-28 15:03:00,
2013-02-28 10:08:00,35.5,35.5,29.61,West,281,0.0,0.0,100,0.00,,OVC010,0.01,VWS V14.00,2013-02-28 15:08:00,
2013-02-28 10:13:00,35.7,35.7,29.61,West,281,0.0,1.0,100,0.00,,OVC010,0.01,VWS V14.00,2013-02-28 15:13:00,
2013-02-28 10:18:00,35.8,35.8,29.61,West,281,0.0,1.0,100,0.00,,OVC010,0.01,VWS V14.00,2013-02-28 15:18:00,
2013-02-28 10:23:00,36.1,36.1,29.61,West,281,0.0,2.0,100,0.00,,OVC010,0.01,VWS V14.00,2013-02-28 15:23:00,
2013-02-28 10:28:00,36.0,36.0,29.61,West,281,0.0,2.0,100,0.00,,OVC010,0.01,VWS V14.00,2013-02-28 15:28:00,
2013-02-28 10:33:00,36.0,36.0,29.61,West,281,0.0,0.0,100,0.00,,OVC010,0.01,VWS V14.00,2013-02-28 15:33:00,
2013-02-28 10:38:00,36.0,36.0,29.61,West,281,0.0,0.0,100,0.00,,OVC010,0.01,VWS V14.00,2013-02-28 15:38:00,
2013-02-28 10:43:00,36.1,36.1,29.61,West,281,0.0,0.0,100,0.00,,OVC010,0.01,VWS V14.00,2013-02-28 15:43:00,
2013-02-28 10:48:00,36.3,36.3,29.60,West,281,0.0,0.0,100,0.00,,OVC010,0.01,VWS V14.00,2013-02-28 15:48:00,
2013-02-28 10:53:00,36.4,36.4,29.61,West,281,0.0,0.0,100,0.00,,OVC010,0.01,VWS V14.00,2013-02-28 15:53:00,
2013-02-28 10:58:00,36.5,36.5,29.61,West,281,0.0,0.0,100,0.00,,OVC010,0.01,VWS V14.00,2013-02-28 15:58:00,
2013-02-28 11:03:00,36.8,36.8,29.60,West,281,0.0,0.0,100,0.00,,OVC010,0.01,VWS V14.00,2013-02-28 16:03:00,
2013-02-28 11:08:00,37.1,37.1,29.60,West,281,0.0,0.0,100,0.00,,OVC010,0.01,VWS V14.00,2013-02-28 16:08:00,
2013-02-28 11:13:00,37.7,37.7,29.60,West,281,0.0,0.0,100,0.00,,OVC010,0.01,VWS V14.00,2013-02-28 16:13:00,
2013-02-28 11:18:00,37.7,37.7,29.60,West,281,0.0,0.0,100,0.00,,OVC010,0.01,VWS V14.00,2013-02-28 16:18:00,
2013-02-28 11:23:00,37.7,37.7,29.60,West,281,0.0,0.0,100,0.00,,OVC010,0.01,VWS V14.00,2013-02-28 16:23:00,
2013-02-28 11:28:00,37.5,37.5,29.60,West,281,0.0,0.0,100,0.00,,OVC010,0.01,VWS V14.00,2013-02-28 16:28:00,
2013-02-28 11:33:00,37.8,37.8,29.60,West,281,0.0,0.0,100,0.00,,OVC010,0.01,VWS V14.00,2013-02-28 16:33:00,
2013-02-28 11:38:00,38.1,38.1,29.59,West,281,0.0,0.0,100,0.00,,OVC010,0.01,VWS V14.00,2013-02-28 16:38:00,
2013-02-28 11:43:00,38.5,38.5,29.59,West,281,0.0,0.0,100,0.00,,OVC010,0.01,VWS V14.00,2013-02-28 16:43:00,
2013-02-28 11:48:00,39.0,39.0,29.59,West,281,0.0,0.0,100,0.00,,OVC010,0.01,VWS V14.00,2013-02-28 16:48:00,
2013-02-28 11:53:00,39.4,39.4,29.59,West,281,0.0,0.0,100,0.00,,OVC010,0.01,VWS V14.00,2013-02-28 16:53:00,
2013-02-28 11:58:00,39.3,39.3,29.59,West,281,0.0,0.0,100,0.00,,OVC010,0.01,VWS V14.00,2013-02-28 16:58:00,
2013-02-28 12:03:00,39.3,39.3,29.59,West,281,0.0,0.0,100,0.00,,OVC013,0.01,VWS V14.00,2013-02-28 17:03:00,
2013-02-28 12:08:00,39.5,39.5,29.59,West,281,1.0,1.0,100,0.00,,OVC013,0.01,VWS V14.00,2013-02-28 17:08:00,
2013-02-28 12:13:00,40.0,40.0,29.58,West,281,0.0,2.0,100,0.00,,OVC013,0.01,VWS V14.00,2013-02-28 17:13:00,
2013-02-28 12:18:00,40.3,40.3,29.58,WNW,282,0.0,2.0,100,0.00,,OVC013,0.01,VWS V14.00,2013-02-28 17:18:00,
2013-02-28 12:23:00,40.3,40.3,29.58,WNW,282,0.0,3.0,100,0.00,,OVC013,0.01,VWS V14.00,2013-02-28 17:23:00,
2013-02-28 12:28:00,40.3,40.3,29.58,WNW,282,0.0,3.0,100,0.00,,OVC013,0.01,VWS V14.00,2013-02-28 17:28:00,
2013-02-28 12:33:00,40.5,40.5,29.57,WNW,282,0.0,3.0,100,0.00,,OVC013,0.01,VWS V14.00,2013-02-28 17:33:00,
2013-02-28 12:38:00,41.0,41.0,29.57,WNW,282,0.0,3.0,100,0.00,,OVC013,0.01,VWS V14.00,2013-02-28 17:38:00,
2013-02-28 12:43:00,41.5,41.5,29.57,WNW,282,0.0,3.0,100,0.00,,OVC013,0.01,VWS V14.00,2013-02-28 17:43:00,
2013-02-28 12:48:00,41.7,41.7,29.57,WNW,282,0.0,3.0,100,0.00,,OVC013,0.01,VWS V14.00,2013-02-28 17:48:00,
2013-02-28 12:53:00,41.7,41.7,29.56,WNW,282,0.0,3.0,100,0.00,,OVC013,0.01,VWS V14.00,2013-02-28 17:53:00,
2013-02-28 12:58:00,41.7,41.7,29.56,WNW,282,0.0,3.0,100,0.00,,OVC013,0.01,VWS V14.00,2013-02-28 17:58:00,
2013-02-28 13:03:00,42.0,42.0,29.55,WNW,282,0.0,2.0,100,0.00,,OVC065,0.01,VWS V14.00,2013-02-28 18:03:00,
2013-02-28 13:08:00,42.5,42.5,29.55,WNW,282,0.0,3.0,100,0.00,,OVC065,0.01,VWS V14.00,2013-02-28 18:08:00,
2013-02-28 13:13:00,43.7,43.4,29.55,WNW,282,1.0,3.0,99,0.00,,OVC065,0.01,VWS V14.00,2013-02-28 18:13:00,
2013-02-28 13:18:00,44.0,43.2,29.55,WNW,282,0.0,4.0,97,0.00,,OVC065,0.01,VWS V14.00,2013-02-28 18:18:00,
2013-02-28 13:23:00,44.8,44.0,29.55,WNW,282,0.0,4.0,97,0.00,,OVC065,0.01,VWS V14.00,2013-02-28 18:23:00,
2013-02-28 13:28:00,45.3,44.0,29.55,WNW,282,1.0,4.0,95,0.00,,OVC065,0.01,VWS V14.00,2013-02-28 18:28:00,
2013-02-28 13:33:00,45.5,43.6,29.55,WNW,282,3.0,3.0,93,0.00,,OVC065,0.01,VWS V14.00,2013-02-28 18:33:00,
2013-02-28 13:38:00,46.2,43.7,29.55,WNW,282,0.0,3.0,91,0.00,,OVC065,0.01,VWS V14.00,2013-02-28 18:38:00,
2013-02-28 13:43:00,46.6,43.5,29.55,WNW,282,2.0,3.0,89,0.00,,OVC065,0.01,VWS V14.00,2013-02-28 18:43:00,
2013-02-28 13:48:00,46.0,42.0,29.55,WNW,282,0.0,4.0,86,0.00,,OVC065,0.01,VWS V14.00,2013-02-28 18:48:00,
2013-02-28 13:53:00,45.5,41.0,29.54,WNW,282,1.0,4.0,84,0.00,,OVC065,0.01,VWS V14.00,2013-02-28 18:53:00,
2013-02-28 13:58:00,45.2,40.7,29.54,WNW,282,0.0,4.0,84,0.00,,OVC065,0.01,VWS V14.00,2013-02-28 18:58:00,
2013-02-28 14:03:00,45.5,41.0,29.54,WNW,283,1.0,3.0,84,0.00,,OVC060,0.01,VWS V14.00,2013-02-28 19:03:00,
2013-02-28 14:08:00,45.8,40.3,29.54,WNW,283,0.0,3.0,81,0.00,,OVC060,0.01,VWS V14.00,2013-02-28 19:08:00,
2013-02-28 14:13:00,45.8,40.0,29.54,WNW,283,0.0,3.0,80,0.00,,OVC060,0.01,VWS V14.00,2013-02-28 19:13:00,
2013-02-28 14:18:00,45.3,39.2,29.54,WNW,283,0.0,3.0,79,0.00,,OVC060,0.01,VWS V14.00,2013-02-28 19:18:00,
2013-02-28 14:23:00,45.3,39.2,29.54,WNW,283,0.0,3.0,79,0.00,,OVC060,0.01,VWS V14.00,2013-02-28 19:23:00,
2013-02-28 14:28:00,45.2,39.1,29.53,WNW,283,0.0,3.0,79,0.00,,OVC060,0.01,VWS V14.00,2013-02-28 19:28:00,
2013-02-28 14:33:00,45.0,38.6,29.54,WNW,283,2.0,3.0,78,0.00,,OVC060,0.01,VWS V14.00,2013-02-28 19:33:00,
2013-02-28 14:38:00,44.7,38.3,29.53,WNW,283,0.0,3.0,78,0.00,,OVC060,0.01,VWS V14.00,2013-02-28 19:38:00,
2013-02-28 14:43:00,44.6,38.2,29.53,WNW,283,0.0,3.0,78,0.00,,OVC060,0.01,VWS V14.00,2013-02-28 19:43:00,
2013-02-28 14:48:00,44.4,38.0,29.53,WNW,283,1.0,3.0,78,0.00,,OVC060,0.01,VWS V14.00,2013-02-28 19:48:00,
2013-02-28 14:53:00,44.4,38.0,29.53,WNW,283,0.0,3.0,78,0.00,,OVC060,0.01,VWS V14.00,2013-02-28 19:53:00,
2013-02-28 14:58:00,44.7,38.3,29.53,WNW,283,1.0,3.0,78,0.00,,OVC060,0.01,VWS V14.00,2013-02-28 19:58:00,
2013-02-28 15:03:00,45.2,38.4,29.53,WNW,283,0.0,2.0,77,0.00,,OVC065,0.01,VWS V14.00,2013-02-28 20:03:00,
2013-02-28 15:08:00,44.8,38.0,29.53,WNW,283,0.0,4.0,77,0.00,,OVC065,0.01,VWS V14.00,2013-02-28 20:08:00,
2013-02-28 15:13:00,44.7,37.9,29.52,WNW,283,0.0,4.0,77,0.00,,OVC065,0.01,VWS V14.00,2013-02-28 20:13:00,
2013-02-28 15:18:00,44.4,37.7,29.53,WNW,283,0.0,4.0,77,0.00,,OVC065,0.01,VWS V14.00,2013-02-28 20:18:00,
2013-02-28 15:23:00,44.4,38.0,29.53,WNW,283,0.0,4.0,78,0.00,,OVC065,0.01,VWS V14.00,2013-02-28 20:23:00,
2013-02-28 15:28:00,44.5,38.1,29.52,WNW,283,0.0,4.0,78,0.00,,OVC065,0.01,VWS V14.00,2013-02-28 20:28:00,
2013-02-28 15:33:00,44.8,38.4,29.53,WNW,283,0.0,0.0,78,0.00,,OVC065,0.01,VWS V14.00,2013-02-28 20:33:00,
2013-02-28 15:38:00,44.7,37.9,29.53,WNW,283,1.0,4.0,77,0.00,,OVC065,0.01,VWS V14.00,2013-02-28 20:38:00,
2013-02-28 15:43:00,44.5,37.8,29.53,WNW,283,1.0,4.0,77,0.00,,OVC065,0.01,VWS V14.00,2013-02-28 20:43:00,
2013-02-28 15:48:00,44.4,37.3,29.53,WNW,283,0.0,4.0,76,0.00,,OVC065,0.01,VWS V14.00,2013-02-28 20:48:00,
2013-02-28 15:53:00,44.3,37.6,29.52,WNW,283,0.0,4.0,77,0.00,,OVC065,0.01,VWS V14.00,2013-02-28 20:53:00,
2013-02-28 15:58:00,44.3,37.6,29.52,WNW,283,2.0,4.0,77,0.00,,OVC065,0.01,VWS V14.00,2013-02-28 20:58:00,
2013-02-28 16:03:00,44.1,37.4,29.53,WNW,283,0.0,0.0,77,0.00,,BKN032,0.01,VWS V14.00,2013-02-28 21:03:00,
2013-02-28 16:08:00,44.0,37.3,29.52,WNW,283,0.0,0.0,77,0.00,,BKN032,0.01,VWS V14.00,2013-02-28 21:08:00,
2013-02-28 16:13:00,44.0,37.3,29.53,WNW,283,2.0,3.0,77,0.00,,BKN032,0.01,VWS V14.00,2013-02-28 21:13:00,
2013-02-28 16:18:00,43.7,37.0,29.53,WNW,283,0.0,3.0,77,0.00,,BKN032,0.01,VWS V14.00,2013-02-28 21:18:00,
2013-02-28 16:23:00,43.7,37.0,29.53,WNW,283,0.0,3.0,77,0.00,,BKN032,0.01,VWS V14.00,2013-02-28 21:23:00,
2013-02-28 16:28:00,43.5,36.8,29.53,WNW,283,0.0,3.0,77,0.00,,BKN032,0.01,VWS V14.00,2013-02-28 21:28:00,
2013-02-28 16:33:00,43.4,36.7,29.53,WNW,283,0.0,2.0,77,0.00,,BKN032,0.01,VWS V14.00,2013-02-28 21:33:00,
2013-02-28 16:38:00,43.4,36.7,29.53,WNW,283,2.0,2.0,77,0.00,,BKN032,0.01,VWS V14.00,2013-02-28 21:38:00,
2013-02-28 16:43:00,43.1,36.4,29.53,WNW,283,0.0,4.0,77,0.00,,BKN032,0.01,VWS V14.00,2013-02-28 21:43:00,
2013-02-28 16:48:00,42.7,36.0,29.53,WNW,283,0.0,4.0,77,0.00,,BKN032,0.01,VWS V14.00,2013-02-28 21:48:00,
2013-02-28 16:53:00,42.5,36.1,29.53,WNW,283,3.0,4.0,78,0.00,,BKN032,0.01,VWS V14.00,2013-02-28 21:53:00,
2013-02-28 16:58:00,42.2,35.8,29.53,WNW,283,0.0,4.0,78,0.00,,BKN032,0.01,VWS V14.00,2013-02-28 21:58:00,
2013-02-28 17:03:00,42.1,36.1,29.53,WNW,283,0.0,0.0,79,0.00,,BKN036,0.01,VWS V14.00,2013-02-28 22:03:00,
2013-02-28 17:08:00,41.8,35.8,29.53,WNW,283,0.0,0.0,79,0.00,,BKN036,0.01,VWS V14.00,2013-02-28 22:08:00,
2013-02-28 17:13:00,41.5,35.8,29.53,WNW,283,0.0,0.0,80,0.00,,BKN036,0.01,VWS V14.00,2013-02-28 22:13:00,
2013-02-28 17:18:00,41.3,35.6,29.54,WNW,283,0.0,0.0,80,0.00,,BKN036,0.01,VWS V14.00,2013-02-28 22:18:00,
2013-02-28 17:23:00,41.1,35.7,29.53,WNW,283,0.0,0.0,81,0.00,,BKN036,0.01,VWS V14.00,2013-02-28 22:23:00,
2013-02-28 17:28:00,41.0,35.6,29.53,WNW,283,0.0,0.0,81,0.00,,BKN036,0.01,VWS V14.00,2013-02-28 22:28:00,
2013-02-28 17:33:00,40.8,35.7,29.53,WNW,283,0.0,0.0,82,0.00,,BKN036,0.01,VWS V14.00,2013-02-28 22:33:00,
2013-02-28 17:38:00,40.7,35.6,29.53,WNW,283,0.0,0.0,82,0.00,,BKN036,0.01,VWS V14.00,2013-02-28 22:38:00,
2013-02-28 17:43:00,40.5,35.8,29.53,WNW,283,0.0,0.0,83,0.00,,BKN036,0.01,VWS V14.00,2013-02-28 22:43:00,
2013-02-28 17:48:00,40.3,35.6,29.53,WNW,283,0.0,0.0,83,0.00,,BKN036,0.01,VWS V14.00,2013-02-28 22:48:00,
2013-02-28 17:53:00,40.1,35.7,29.53,WNW,283,0.0,0.0,84,0.00,,BKN036,0.01,VWS V14.00,2013-02-28 22:53:00,
2013-02-28 17:58:00,40.0,35.6,29.54,WNW,283,0.0,0.0,84,0.00,,BKN036,0.01,VWS V14.00,2013-02-28 22:58:00,
2013-02-28 18:03:00,40.0,35.6,29.53,WNW,283,0.0,0.0,84,0.00,,OVC038,0.01,VWS V14.00,2013-02-28 23:03:00,
2013-02-28 18:08:00,39.8,35.4,29.53,WNW,283,0.0,0.0,84,0.00,,OVC038,0.01,VWS V14.00,2013-02-28 23:08:00,
2013-02-28 18:13:00,39.7,35.6,29.53,WNW,283,0.0,0.0,85,0.00,,OVC038,0.01,VWS V14.00,2013-02-28 23:13:00,
2013-02-28 18:18:00,39.4,35.3,29.54,WNW,283,0.0,0.0,85,0.00,,OVC038,0.01,VWS V14.00,2013-02-28 23:18:00,
2013-02-28 18:23:00,39.1,35.3,29.53,WNW,283,0.0,0.0,86,0.00,,OVC038,0.01,VWS V14.00,2013-02-28 23:23:00,
2013-02-28 18:28:00,38.7,34.9,29.54,WNW,283,0.0,0.0,86,0.00,,OVC038,0.01,VWS V14.00,2013-02-28 23:28:00,
2013-02-28 18:33:00,38.4,34.9,29.53,WNW,283,0.0,0.0,87,0.00,,OVC038,0.01,VWS V14.00,2013-02-28 23:33:00,
2013-02-28 18:38:00,38.0,34.5,29.53,WNW,283,0.0,0.0,87,0.00,,OVC038,0.01,VWS V14.00,2013-02-28 23:38:00,
2013-02-28 18:43:00,37.7,34.2,29.53,WNW,283,0.0,0.0,87,0.00,,OVC038,0.01,VWS V14.00,2013-02-28 23:43:00,
2013-02-28 18:48:00,37.4,34.2,29.53,WNW,283,0.0,0.0,88,0.00,,OVC038,0.01,VWS V14.00,2013-02-28 23:48:00,
2013-02-28 18:53:00,37.1,33.9,29.53,WNW,283,0.0,0.0,88,0.00,,OVC038,0.01,VWS V14.00,2013-02-28 23:53:00,
2013-02-28 18:58:00,36.8,33.9,29.53,WNW,283,0.0,0.0,89,0.00,,OVC038,0.01,VWS V14.00,2013-02-28 23:58:00,
2013-02-28 19:03:00,36.5,33.3,29.53,WNW,283,0.0,0.0,88,0.00,,OVC044,0.01,VWS V14.00,2013-03-01 00:03:00,
2013-02-28 19:08:00,36.3,33.4,29.53,WNW,283,0.0,0.0,89,0.00,,OVC044,0.01,VWS V14.00,2013-03-01 00:08:00,
2013-02-28 19:13:00,36.1,33.5,29.53,WNW,283,0.0,0.0,90,0.00,,OVC044,0.01,VWS V14.00,2013-03-01 00:13:00,
2013-02-28 19:18:00,36.0,33.4,29.53,WNW,283,0.0,0.0,90,0.00,,OVC044,0.01,VWS V14.00,2013-03-01 00:18:00,
2013-02-28 19:23:00,35.7,33.1,29.53,WNW,283,0.0,0.0,90,0.00,,OVC044,0.01,VWS V14.00,2013-03-01 00:23:00,
2013-02-28 19:28:00,35.5,33.1,29.53,WNW,283,0.0,0.0,91,0.00,,OVC044,0.01,VWS V14.00,2013-03-01 00:28:00,
2013-02-28 19:33:00,35.4,33.0,29.53,WNW,283,0.0,0.0,91,0.00,,OVC044,0.01,VWS V14.00,2013-03-01 00:33:00,
2013-02-28 19:38:00,35.1,32.7,29.53,WNW,283,0.0,0.0,91,0.00,,OVC044,0.01,VWS V14.00,2013-03-01 00:38:00,
2013-02-28 19:43:00,35.1,32.7,29.53,WNW,283,0.0,0.0,91,0.00,,OVC044,0.01,VWS V14.00,2013-03-01 00:43:00,
2013-02-28 19:48:00,35.0,32.9,29.53,WNW,283,0.0,0.0,92,0.00,,OVC044,0.01,VWS V14.00,2013-03-01 00:48:00,
2013-02-28 19:53:00,34.8,32.7,29.53,WNW,283,0.0,0.0,92,0.00,,OVC044,0.01,VWS V14.00,2013-03-01 00:53:00,
2013-02-28 19:58:00,34.8,32.7,29.53,WNW,283,0.0,0.0,92,0.00,,OVC044,0.01,VWS V14.00,2013-03-01 00:58:00,
2013-02-28 20:03:00,34.7,32.6,29.54,WNW,283,0.0,0.0,92,0.00,,OVC042,0.01,VWS V14.00,2013-03-01 01:03:00,
2013-02-28 20:08:00,34.7,32.9,29.53,WNW,283,0.0,0.0,93,0.00,,OVC042,0.01,VWS V14.00,2013-03-01 01:08:00,
2013-02-28 20:13:00,34.6,33.0,29.54,WNW,283,0.0,0.0,94,0.00,,OVC042,0.01,VWS V14.00,2013-03-01 01:13:00,
2013-02-28 20:18:00,34.6,33.0,29.53,WNW,283,0.0,0.0,94,0.00,,OVC042,0.01,VWS V14.00,2013-03-01 01:18:00,
2013-02-28 20:23:00,34.4,32.9,29.54,WNW,283,0.0,0.0,94,0.00,,OVC042,0.01,VWS V14.00,2013-03-01 01:23:00,
2013-02-28 20:28:00,34.3,32.8,29.54,WNW,283,0.0,0.0,94,0.00,,OVC042,0.01,VWS V14.00,2013-03-01 01:28:00,
2013-02-28 20:33:00,34.1,32.6,29.54,WNW,283,0.0,0.0,94,0.00,,OVC042,0.01,VWS V14.00,2013-03-01 01:33:00,
2013-02-28 20:38:00,34.0,32.5,29.54,WNW,283,0.0,0.0,94,0.00,,OVC042,0.01,VWS V14.00,2013-03-01 01:38:00,
2013-02-28 20:43:00,33.8,32.5,29.54,WNW,283,0.0,0.0,95,0.00,,OVC042,0.01,VWS V14.00,2013-03-01 01:43:00,
2013-02-28 20:48:00,33.7,32.4,29.54,WNW,283,0.0,0.0,95,0.00,,OVC042,0.01,VWS V14.00,2013-03-01 01:48:00,
2013-02-28 20:53:00,33.7,32.4,29.53,WNW,283,0.0,0.0,95,0.00,,OVC042,0.01,VWS V14.00,2013-03-01 01:53:00,
2013-02-28 20:58:00,33.5,32.2,29.53,WNW,283,0.0,0.0,95,0.00,,OVC042,0.01,VWS V14.00,2013-03-01 01:58:00,
2013-02-28 21:03:00,33.4,32.1,29.53,WNW,283,0.0,0.0,95,0.00,,FEW040,0.01,VWS V14.00,2013-03-01 02:03:00,
2013-02-28 21:08:00,33.4,32.1,29.53,WNW,283,0.0,0.0,95,0.00,,FEW040,0.01,VWS V14.00,2013-03-01 02:08:00,
2013-02-28 21:13:00,33.4,32.1,29.53,WNW,283,0.0,0.0,95,0.00,,FEW040,0.01,VWS V14.00,2013-03-01 02:13:00,
2013-02-28 21:18:00,33.4,32.1,29.53,WNW,283,0.0,0.0,95,0.00,,FEW040,0.01,VWS V14.00,2013-03-01 02:18:00,
2013-02-28 21:23:00,33.4,32.1,29.53,WNW,283,0.0,0.0,95,0.00,,FEW040,0.01,VWS V14.00,2013-03-01 02:23:00,
2013-02-28 21:28:00,33.4,32.4,29.53,WNW,283,0.0,0.0,96,0.00,,FEW040,0.01,VWS V14.00,2013-03-01 02:28:00,
2013-02-28 21:33:00,33.3,32.3,29.53,WNW,283,0.0,0.0,96,0.00,,FEW040,0.01,VWS V14.00,2013-03-01 02:33:00,
2013-02-28 21:38:00,33.3,32.3,29.53,WNW,283,0.0,0.0,96,0.00,,FEW040,0.01,VWS V14.00,2013-03-01 02:38:00,
2013-02-28 21:43:00,33.1,32.1,29.53,WNW,283,0.0,0.0,96,0.00,,FEW040,0.01,VWS V14.00,2013-03-01 02:43:00,
2013-02-28 21:48:00,33.1,32.1,29.53,WNW,283,0.0,0.0,96,0.00,,FEW040,0.01,VWS V14.00,2013-03-01 02:48:00,
2013-02-28 21:53:00,33.1,32.1,29.53,WNW,283,0.0,0.0,96,0.00,,FEW040,0.01,VWS V14.00,2013-03-01 02:53:00,
2013-02-28 21:58:00,33.1,32.1,29.52,WNW,283,0.0,0.0,96,0.00,,FEW040,0.01,VWS V14.00,2013-03-01 02:58:00,
2013-02-28 22:03:00,33.1,32.3,29.53,WNW,283,0.0,0.0,97,0.00,,OVC047,0.01,VWS V14.00,2013-03-01 03:03:00,
2013-02-28 22:08:00,33.3,32.5,29.52,WNW,283,0.0,0.0,97,0.00,,OVC047,0.01,VWS V14.00,2013-03-01 03:08:00,
2013-02-28 22:13:00,33.4,32.6,29.52,WNW,283,0.0,0.0,97,0.00,,OVC047,0.01,VWS V14.00,2013-03-01 03:13:00,
2013-02-28 22:18:00,33.4,32.6,29.52,WNW,283,0.0,0.0,97,0.00,,OVC047,0.01,VWS V14.00,2013-03-01 03:18:00,
2013-02-28 22:23:00,33.7,32.9,29.52,WNW,283,0.0,0.0,97,0.00,,OVC047,0.01,VWS V14.00,2013-03-01 03:23:00,
2013-02-28 22:28:00,33.8,33.0,29.53,WNW,283,0.0,0.0,97,0.00,,OVC047,0.01,VWS V14.00,2013-03-01 03:28:00,
2013-02-28 22:33:00,34.0,33.2,29.53,WNW,283,0.0,0.0,97,0.00,,OVC047,0.01,VWS V14.00,2013-03-01 03:33:00,
2013-02-28 22:38:00,34.0,33.8,29.52,WNW,283,0.0,0.0,99,0.00,,OVC047,0.01,VWS V14.00,2013-03-01 03:38:00,
2013-02-28 22:43:00,34.0,33.8,29.52,WNW,283,0.0,0.0,99,0.00,,OVC047,0.01,VWS V14.00,2013-03-01 03:43:00,
2013-02-28 22:48:00,34.0,34.0,29.52,WNW,283,0.0,0.0,100,0.00,,OVC047,0.01,VWS V14.00,2013-03-01 03:48:00,
2013-02-28 22:53:00,34.0,33.8,29.52,WNW,283,0.0,0.0,99,0.00,,OVC047,0.01,VWS V14.00,2013-03-01 03:53:00,
2013-02-28 22:58:00,34.0,33.8,29.52,WNW,283,0.0,0.0,99,0.00,,OVC047,0.01,VWS V14.00,2013-03-01 03:58:00,
2013-02-28 23:03:00,34.0,33.8,29.52,WNW,283,0.0,0.0,99,0.00,,OVC030,0.01,VWS V14.00,2013-03-01 04:03:00,
2013-02-28 23:08:00,34.0,33.8,29.52,WNW,283,0.0,0.0,99,0.00,,OVC030,0.01,VWS V14.00,2013-03-01 04:08:00,
2013-02-28 23:13:00,34.0,34.0,29.53,WNW,283,0.0,0.0,100,0.00,,OVC030,0.01,VWS V14.00,2013-03-01 04:13:00,
2013-02-28 23:18:00,34.0,33.8,29.52,WNW,283,0.0,0.0,99,0.00,,OVC030,0.01,VWS V14.00,2013-03-01 04:18:00,
2013-02-28 23:23:00,34.0,33.8,29.52,WNW,283,0.0,0.0,99,0.00,,OVC030,0.01,VWS V14.00,2013-03-01 04:23:00,
2013-02-28 23:28:00,34.0,33.8,29.52,WNW,283,0.0,0.0,99,0.00,,OVC030,0.01,VWS V14.00,2013-03-01 04:28:00,
2013-02-28 23:33:00,34.0,34.0,29.52,WNW,283,0.0,0.0,100,0.00,,OVC030,0.01,VWS V14.00,2013-03-01 04:33:00,
2013-02-28 23:38:00,34.0,34.0,29.52,WNW,283,0.0,0.0,100,0.00,,OVC030,0.01,VWS V14.00,2013-03-01 04:38:00,
2013-02-28 23:43:00,34.0,34.0,29.52,WNW,283,0.0,0.0,100,0.00,,OVC030,0.01,VWS V14.00,2013-03-01 04:43:00,
2013-02-28 23:48:00,34.0,34.0,29.52,WNW,283,0.0,0.0,100,0.00,,OVC030,0.01,VWS V14.00,2013-03-01 04:48:00,
2013-02-28 23:53:00,34.1,34.1,29.52,WNW,283,0.0,0.0,100,0.00,,OVC030,0.01,VWS V14.00,2013-03-01 04:53:00,
2013-02-28 23:58:00,34.3,34.3,29.52,WNW,284,0.0,0.0,100,0.00,,OVC030,0.01,VWS V14.00,2013-03-01 04:58:00,